Walvis Bay Airport

Jump to: basic info | weather | frequencies | runways | comments

Related pages: nearby airports | nearby navaids | notams | map

Basic information (top)

Codes: WVB FYWB
Location: lon -22.979900, lat 14.645300, elev 299 ft / 91 m msl
Status: medium_airport
Scheduled airline service: no
Links: Wikipedia Mobile

Weather (top)

Current conditions (rec'd 2014/09/02 04:00Z):

FYWB 020400Z AUTO 36006KT //// // ////// 12/11 Q1019

Airport forecast (rec'd 2014/08/27 06:11Z):

TAF FYWB 270400Z 2706/2812 06003KT 0800 FG OVC008 
      BECMG 2707/2709 5000 BR BKN012 
      BECMG 2710/2712 21012KT CAVOK 
      BECMG 2719/2721 05003KT 9999 OVC005 
      TEMPO 2722/2807 0500 FG 
      BECMG 2808/2810 9999 BKN015 
     FM281100 18015KT

Frequencies (top)

Verify before use: may be inaccurate or out of date.

APP: 122.5 MHz (APP)
TWR: 122.5 MHz (TWR)

Runways (top)

09/27: 7,001 x 98 ft (2,134 x 30 m) — paved — lighted

Latest comments (top)

No comments yet for Walvis Bay Airport

More... (top)

See also NOTAMs and nearby airports and navaids, or visit the Walvis Bay Airport page at the main OurAirports website..